sat.trackr.live / text

‹ back to catalog

STARLINK-31323

NORAD 58882 · 2024-020G

PAYLOAD ACTIVE UNKNOWN

§ Identity

Operator
Country
US
Launch date
2024-01-29
Launch site
AFWTR
Launch vehicle
Mass (kg)
RCS (m²)

Purposes: comms

External: N2YO · Heavens-Above · Gunter

§ Orbital elements

Epoch: 2026-09-20T05:59:37.229280Z

Period
93.85 min
Inclination
53.1593°
Eccentricity
0.0001074
Mean motion
15.34392397 rev/d
Perigee alt
462.0 km
Apogee alt
463.5 km
Semi-major
6,840.9 km
B*
3.3616e-5
RAAN
134.8452°
Arg perigee
94.7738°
Mean anomaly
265.3387°
Rev number
14,791

§ Raw data

STARLINK-313231 58882U 24020G   26263.24973645  .00000760  00000+0  33616-4 0  99932 58882  53.1593 134.8452 0001074  94.7738 265.3387 15.34392397147918

JSON: /api/v1/satellites/58882 · /tle

For live sub-satellite position, see the globe view (requires WebGL).

§ Visibility from observer

Set your observer location to see the next 7 days of passes ≥ 10°. The values pass through the URL so the page stays shareable.

No JS? Fill the form by hand. The geolocation button needs JavaScript.